Regional Weather Roundup
Issued by NWS State College, PA

Home | Current Version | Previous Version | Graphics & Text | Print | Product List | Glossary Off
Versions: 1 2 3 4 5 6 7 8 9 10 11 12 13 14 15 16 17 18 19 20 21 22 23 24 25 26 27 28 29 30 31 32 33 34 35 36 37 38 39 40 41 42 43 44 45 46 47 48 49 50

000
ASUS41 KCTP 042310
RWRCTP

REGIONAL WEATHER ROUNDUP
NATIONAL WEATHER SERVICE STATE COLLEGE PA
600 PM EST SUN DEC 04 2016

Note: "fair" indicates few or no clouds below 12,000 feet with no
significant weather and/or obstructions to visibility.

* = STATION THAT DOES NOT REPORT PRECIPITATION /E.G. RAIN...SNOW...ETC/
    THUNDER OR FOG.

PAZ002>004-007>009-013>016-020>023-029>032-050000-
WESTERN PENNSYLVANIA

CITY           SKY/WX    TMP DP  RH WIND       PRES   REMARKS
ERIE           CLOUDY    40  29  64 E5        30.04F
MEADVILLE      CLOUDY    37  27  67 VRB5      30.01S
FRANKLIN*        N/A     36  25  64 SE10      30.03S
NEW CASTLE     CLOUDY    39  28  64 SE3       30.03S
BEAVER COUNTY  NOT AVBL
BUTLER*        CLOUDY    37  27  65 E10       30.03S
PITTSBURGH INT CLOUDY    41  29  62 E8        29.98F
PITTSBURGH     CLOUDY    40  26  57 E8        29.98F
INDIANA*       CLOUDY    39  28  65 SE10      30.05F
LATROBE        CLOUDY    39  27  60 SE12      30.02F
WASHINGTON CO* CLOUDY    39  27  60 E3        29.99F
$$

PAZ004>006-010>012-017>019-024>028-033>037-041-042-045-046-049>053-050000-
CENTRAL PENNSYLVANIA

CITY           SKY/WX    TMP DP  RH WIND       PRES   REMARKS
BRADFORD       CLOUDY    32  26  78 SE8       30.03F
DUBOIS         CLOUDY    35  26  69 SE8       30.03F
CLEARFIELD     CLOUDY    36  28  73 E6        30.07F
JOHNSTOWN      CLOUDY    34  26  72 E8G17     30.00F
ALTOONA        CLOUDY    38  29  70 SE8       30.09F
STATE COLLEGE  PTCLDY    36  27  69 CALM      30.09F
WILLIAMSPORT   MOCLDY    38  26  62 E6        30.13F
SELINSGROVE    PTCLDY    37  32  82 CALM      30.16S
FT INDIANTOWN  CLOUDY    39  26  58 CALM      30.16R
CAPITAL CITY   CLOUDY    43  28  55 S3        30.16S
HARRISBURG     MOCLDY    43  31  62 S5        30.16S
YORK           CLOUDY    39  31  72 SE3       30.15F
$$

PAZ038>040-043-044-047-048-054-055-060>062-067>071-050000-
EASTERN PENNSYLVANIA

CITY           SKY/WX    TMP DP  RH WIND       PRES   REMARKS
SCRANTON       MOCLDY    37  24  59 CALM      30.14F
MOUNT POCONO   PTCLDY    32  22  66 CALM      30.11F
ALLENTOWN      PTCLDY    42  23  46 NE5       30.16F
QUAKERTOWN*    PTCLDY    37  27  65 CALM      30.17F
READING        PTCLDY    42  25  50 CALM      30.16F
LANCASTER      CLOUDY    41  29  62 S5        30.18S
COATESVILLE    CLOUDY    41  27  56 CALM      30.17F
POTTSTOWN      CLOUDY    39  26  59 CALM      30.18F
BLUE BELL      MOCLDY    36  30  80 CALM      30.17F
DOYLESTOWN     PTCLDY    40  27  59 CALM      30.17S
WILLOW GROVE   NOT AVBL
NORTH PHILA    CLOUDY    42  25  50 CALM      30.20F
PHILADELPHIA   MOCLDY    44  26  49 S3        30.19F
$$




USA.gov is the U.S. government's official web portal to all federal, state and local government web resources and services.